Lexington Weather

Lexington, Massachusetts, USA

56°F
10/22/2020 7:46pm 
  • Lexington Conditions: Mostly cloudy
  • Temperature: 55.8°F / 13.2°CColder 0.3°F than last hour.
  • Dew Point: 54.3°FDecreased 0.2°Fsince last hour.
  • Relative Humidity: 95%Increased 1.0% since last hour.
  • Wind: Calm, 10-min avg: Calm, gust: 2 mph
  • Barometer: 30.22 in Steady
  • Visibility: 7 miles
  • Rain Today: 0.00 in
  •   

Regional Weather Roundup
for Boston / Norton, MA

        
000
ASUS41 KBOX 171904
RWRBOX

REGIONAL WEATHER ROUNDUP
NATIONAL WEATHER SERVICE BOSTON/NORTON MA
300 PM EDT SAT OCT 17 2020

NOTE:  "FAIR" INDICATES FEW OR NO CLOUDS BELOW 12,000 FEET WITH NO 
SIGNIFICANT WEATHER AND/OR OBSTRUCTIONS TO VISIBILITY.

MAZALL-172000-
EASTERN MASSACHUSETTS
  
CITY           SKY/WX    TMP DP  RH WIND       PRES   REMARKS
BOSTON         MOSUNNY   58  34  40 NW15G24   30.22R                  
BEVERLY        SUNNY     57  32  38 NW17G29   30.21R                  
LAWRENCE       SUNNY     57  31  37 NW12G26   30.23R                  
BEDFORD        SUNNY     57  31  37 NW17G28   30.22R                  
BLUE HILL        N/A     55  33  43 NW17G29   30.20R                  
NORWOOD        SUNNY     60  32  34 NW14      30.22R                  
MARSHFIELD     SUNNY     59  36  41 VRB8G18   30.22R                  
PLYMOUTH       SUNNY     58  35  42 NW14G22   30.22R                  
TAUNTON        SUNNY     60  34  37 NW12G17   30.23R                  
NEW BEDFORD    SUNNY     60  36  40 W16G24    30.22R                  
$$

MAZALL-172000-
CAPE COD AND THE ISLANDS
  
CITY           SKY/WX    TMP DP  RH WIND       PRES   REMARKS
FALMOUTH       SUNNY     57  34  41 NW15G24   30.22R                  
HYANNIS        SUNNY     58  36  43 NW12G20   30.21R                  
CHATHAM        SUNNY     56  37  49 NW10G21   30.23R                  
PROVINCETOWN   SUNNY     56  41  57 NW16G22   30.23R                  
NANTUCKET      SUNNY     55  41  59 NW28G33   30.18F                  
MARTHAS VNYRD  SUNNY     59  36  42 W10       30.24R                  
$$
 
MAZALL-172000-
CENTRAL AND WESTERN MASSACHUSETTS
  
CITY           SKY/WX    TMP DP  RH WIND       PRES   REMARKS
WORCESTER      SUNNY     54  32  43 W12G25    30.23R                  
FITCHBURG      SUNNY     58  32  37 NW16G26   30.23R                  
ORANGE         SUNNY     57  30  35 NW12G18   30.24S                  
SPRINGFIELD    MOSUNNY   60  25  26 NW15      30.24R                  
WESTFIELD      SUNNY     59  27  29 W10G20    30.26R                  
NORTH ADAMS    SUNNY     55  29  36 W12G17    30.27R                  
PITTSFIELD     SUNNY     54  29  38 NW8       30.26R                  
$$
 
RIZALL-172000-
RHODE ISLAND
  
CITY           SKY/WX    TMP DP  RH WIND       PRES   REMARKS
PROVIDENCE     MOSUNNY   60  36  40 NW10      30.25R                  
NEWPORT        SUNNY     57  37  47 NW12G21   30.24R                  
BLOCK ISLAND   SUNNY     58  36  43 NW8       30.26R                  
SMITHFIELD     SUNNY     57  34  41 NW10G20     N/A                   
WESTERLY       SUNNY     60  32  34 VRB6      30.26R                  
$$
 
CTZALL-172000-
CONNECTICUT
  
CITY           SKY/WX    TMP DP  RH WIND       PRES   REMARKS
BRADLEY INTL   SUNNY     60  26  27 NW14      30.26R                  
HARTFORD       SUNNY     60  25  26 NW15G22   30.26R                  
BRIDGEPORT     SUNNY     61  28  28 N13       30.27F                  
DANBURY        SUNNY     57  29  34 NW7       30.29F                  
GROTON         SUNNY     60  34  37 NW14G20   30.25R                  
NEW HAVEN      SUNNY     61  30  31 NW9       30.27R                  
CHESTER        NOT AVBL                                               
MERIDEN        SUNNY     60  27  28 NW10G21   30.27R                  
WILLIMANTIC    SUNNY     58  31  35 VRB7G21   30.25R                  
OXFORD         SUNNY     56  29  35 NW7G20    30.28S                  
$$

MEZ002-015-021-024-NHZ003-005-008-011-012-014-VTZ005-008-172000-
NORTHERN NEW ENGLAND
  
CITY           SKY/WX    TMP DP  RH WIND       PRES   REMARKS
PORTLAND ME    MOSUNNY   52  39  61 NW9G28    30.16R                  
BANGOR ME      LGT RAIN  41  38  89 W12G21    30.03R FOG              
CONCORD NH     SUNNY     57  30  35 NW18G28   30.21R                  
MANCHESTER NH  MOSUNNY   58  28  32 NW13      30.21R                  
NASHUA NH      SUNNY     57  32  38 NW21      30.22R                  
PORTSMOUTH NH  MOSUNNY   56  30  37 W18G24    30.18R                  
JAFFREY NH     SUNNY     53  28  38 NW12G23   30.24R                  
KEENE NH       SUNNY     55  30  38 N12       30.24R                  
BURLINGTON VT  MOSUNNY   55  28  35 NW7       30.23S                  
MT. WASHINGTON BLWGSNOW  21  21 100 W71G84      N/A  VSB 1/16WCI  -4  
$$

NYZ052-076-172000-
EASTERN NEW YORK
  
CITY           SKY/WX    TMP DP  RH WIND       PRES   REMARKS
ALBANY         MOSUNNY   55  29  36 VRB7      30.28F                  
NEW YORK CITY  SUNNY     60  27  28 NW18      30.28F                  
$$
 
ANZALL-172000-
MARINE OBSERVATIONS
  
STATION/POSITION TIME  TEMP    WIND        PRES    VSBY  WAVE
                       AIR SEA DIR/SP/G                  HT/PER
                 (UTC) (F)     (DEG/KT/KT) (MB)    (MI)  (FT/S)
BOSTON BUOY      1850   55 57  310/ 19/ 23 1021.6R         4/ 4
BUZZARDS BAY     1800          320/ 20/ 23 1024.2F
NANTUCKET SOUND  1850      62  300/ 12/ 16   N/A           2/ 4
MASS BAY-STELLWA 1804   54 58  310/ 19/ 23 1021.4R  1 7/8  4/ 4
ISLE OF SHOALS   1800   51     310/ 26/ 29 1020.9R
S OF BLOCK IS    1826      63                N/A           4/ 5
$$

......................KEY.........................
  SKY/WX - SKY CONDITION/PRESENT WEATHER
  TMP    - TEMPERATURE IN FAHRENHEIT
  DWPT   - DEWPOINT IN FAHRENHEIT
  RH     - RELATIVE HUMIDITY IN PERCENT
  WIND   - DIRECTION AND SPEED IN MPH
  PRES   - MEAN SEA LEVEL PRESSURE IN INCHES OF HG
  WCI    - WIND CHILL INDEX
  VSB    - VISIBILITY IN MILES
  HX     - HEAT INDEX
  TC     - TEMPERATURE IN CELSIUS
  VRB    - VARIABLE WIND DIRECTION
  N/A    - NOT AVAILABLE
  
      

Other recent Regional Weather Roundups

Thu Oct 22, 7:05pm

Thu Oct 22, 6:04pm

Thu Oct 22, 5:04pm

Thu Oct 22, 4:05pm

Thu Oct 22, 3:04pm

Thu Oct 22, 2:05pm

Thu Oct 22, 1:04pm

Thu Oct 22, 12:04pm

Thu Oct 22, 11:04am

Thu Oct 22, 10:05am

Thu Oct 22, 9:04am

Thu Oct 22, 8:05am

Thu Oct 22, 7:04am

Thu Oct 22, 6:04am

Thu Oct 22, 5:04am

Thu Oct 22, 4:04am

Thu Oct 22, 3:04am

Thu Oct 22, 2:04am

Thu Oct 22, 1:04am

Thu Oct 22, 12:04am

Wed Oct 21, 11:05pm

Wed Oct 21, 10:04pm

Wed Oct 21, 9:04pm

Wed Oct 21, 8:04pm

Wed Oct 21, 7:04pm

Wed Oct 21, 6:04pm

Wed Oct 21, 5:05pm

Wed Oct 21, 4:04pm

Wed Oct 21, 3:04pm

Wed Oct 21, 2:05pm

Wed Oct 21, 1:04pm

Wed Oct 21, 12:04pm

Wed Oct 21, 11:04am

Wed Oct 21, 10:04am

Wed Oct 21, 9:04am

Wed Oct 21, 8:04am

Wed Oct 21, 7:04am

Wed Oct 21, 6:04am

Wed Oct 21, 5:04am

Wed Oct 21, 4:04am

Wed Oct 21, 3:04am

Wed Oct 21, 2:04am

Wed Oct 21, 1:04am

Wed Oct 21, 12:04am

Tue Oct 20, 11:05pm

Tue Oct 20, 10:04pm

Tue Oct 20, 9:04pm

Tue Oct 20, 8:05pm

Tue Oct 20, 7:04pm

Tue Oct 20, 6:04pm

Tue Oct 20, 5:05pm

Tue Oct 20, 4:04pm

Tue Oct 20, 3:05pm

Tue Oct 20, 2:07pm

Tue Oct 20, 1:04pm

Tue Oct 20, 12:04pm

Tue Oct 20, 11:04am

Tue Oct 20, 10:05am

Tue Oct 20, 9:04am

Tue Oct 20, 8:04am

Tue Oct 20, 7:04am

Tue Oct 20, 6:04am

Tue Oct 20, 5:04am

Tue Oct 20, 4:04am

Tue Oct 20, 3:04am

Tue Oct 20, 2:04am

Tue Oct 20, 1:04am

Tue Oct 20, 12:04am

Mon Oct 19, 11:04pm

Mon Oct 19, 10:04pm

Mon Oct 19, 9:04pm

Mon Oct 19, 8:04pm

Mon Oct 19, 7:04pm

Mon Oct 19, 6:04pm

Mon Oct 19, 5:04pm

Mon Oct 19, 4:04pm

Mon Oct 19, 3:04pm

Mon Oct 19, 2:04pm

Mon Oct 19, 1:05pm

Mon Oct 19, 12:04pm

Mon Oct 19, 11:04am

Mon Oct 19, 10:04am

Mon Oct 19, 9:04am

Mon Oct 19, 8:04am

Mon Oct 19, 7:04am

Mon Oct 19, 6:04am

Mon Oct 19, 5:04am

Mon Oct 19, 4:04am

Mon Oct 19, 3:04am

Mon Oct 19, 2:04am

Mon Oct 19, 1:04am

Mon Oct 19, 12:05am

Sun Oct 18, 11:04pm

Sun Oct 18, 10:04pm

Sun Oct 18, 9:04pm

Sun Oct 18, 8:04pm

Sun Oct 18, 7:05pm

Sun Oct 18, 6:04pm

Sun Oct 18, 5:05pm

Sun Oct 18, 4:05pm

Sun Oct 18, 3:04pm

Sun Oct 18, 2:05pm

Sun Oct 18, 1:04pm

Sun Oct 18, 12:04pm

Sun Oct 18, 11:04am

Sun Oct 18, 10:04am

Sun Oct 18, 9:04am

Sun Oct 18, 8:04am

Sun Oct 18, 7:04am

Sun Oct 18, 6:04am

Sun Oct 18, 5:04am

Sun Oct 18, 4:04am

Sun Oct 18, 3:04am

Sun Oct 18, 2:04am

Sun Oct 18, 1:04am

Sun Oct 18, 12:04am

Sat Oct 17, 11:05pm

Sat Oct 17, 10:04pm

Sat Oct 17, 9:04pm

Sat Oct 17, 8:04pm

Sat Oct 17, 7:04pm

Sat Oct 17, 6:04pm

Sat Oct 17, 5:05pm

Sat Oct 17, 4:04pm

Sat Oct 17, 2:05pm

Sat Oct 17, 1:05pm

Sat Oct 17, 12:04pm

Sat Oct 17, 11:05am

Sat Oct 17, 10:04am

Sat Oct 17, 9:04am

Sat Oct 17, 8:04am

Sat Oct 17, 7:04am

Sat Oct 17, 6:04am

Sat Oct 17, 5:04am

Sat Oct 17, 4:04am

Sat Oct 17, 3:04am

Sat Oct 17, 2:04am

Sat Oct 17, 1:05am

Sat Oct 17, 12:04am

Fri Oct 16, 11:05pm

Fri Oct 16, 10:04pm

Fri Oct 16, 9:05pm

Fri Oct 16, 8:04pm

Fri Oct 16, 7:05pm

Fri Oct 16, 6:04pm

Fri Oct 16, 5:04pm

Fri Oct 16, 4:05pm

Fri Oct 16, 3:04pm

Fri Oct 16, 2:04pm

Fri Oct 16, 1:04pm

Fri Oct 16, 12:04pm

Fri Oct 16, 11:05am

Fri Oct 16, 10:04am

Fri Oct 16, 9:04am

Fri Oct 16, 8:04am

Fri Oct 16, 7:04am

Fri Oct 16, 6:04am

Fri Oct 16, 5:04am

Fri Oct 16, 4:04am

Fri Oct 16, 3:04am

Fri Oct 16, 2:04am

Fri Oct 16, 1:04am

Fri Oct 16, 12:04am

Thu Oct 15, 11:04pm

Thu Oct 15, 10:04pm

Thu Oct 15, 9:05pm

Thu Oct 15, 8:04pm

Meta data:

ID: e082d1ab-2dd9-4d2a-9d05-7e76b82c1241
Link: https://api.weather.gov/products/e082d1ab-2dd9-4d2a-9d05-7e76b82c1241